Walla Walla, WA
on Wednesday, December 26, 2012

Wednesday
Previous Day Next Day
Daily Summary
 ActualAverage (KPDT)Record (KPDT)
Temperature
Mean Temperature °F 32°F  
Max Temperature 34°F 39°F 67°F (1980)
Min Temperature 30°F 26°F -9°F (1924)
Degree Days
Heating Degree Days 33 33  
Month to date heating degree days 826  
Since 1 July heating degree days 2079  
Cooling Degree Days 0 0  
Month to date cooling degree days 0  
Year to date cooling degree days 636  
Moisture
Dew Point 32°F   
Average Humidity 95    
Maximum Humidity 100    
Minimum Humidity 92    
Precipitation
Precipitation 0.01 in 0.04 in 0.49 in (1933)
Month to date precipitation 1.24  
Year to date precipitation 12.43  
Snow
Snow 0.00 in 0.20 in 3.70 in (1996)
Month to date snowfall 4.9  
Year to date snowfall 14.1  
Since 1 July snowfall 6.4  
Snow Depth in   
Wind
Wind Speed 4 mph   
Max Wind Speed 8 mph   
Max Gust Speed mph   
Visibility 3 miles   
Events Fog , Snow   

Key: T is trace of precipitation, MM is missing value
Source: NWS Daily Summary
Time(PST)TemperatureDew PointHumidity Pressure Visibility Wind DirectionWind SpeedGust SpeedPrecipitationEvents Conditions
12:46 AM 32.0°F 32.0°F 100% 29.79 in 0.2 miles SSE 3.5 mph - N/A Fog Fog
12:53 AM 32.0°F 32.0°F 100% 29.82 in 0.5 miles SSW 3.5 mph - N/A Fog Fog
1:02 AM 32.0°F 30.2°F 93% 29.79 in 0.2 miles Calm Calm - N/A Fog Fog
1:33 AM 32.0°F 30.2°F 93% 29.78 in 0.2 miles South 5.8 mph - N/A Fog Fog
1:40 AM 32.0°F 30.2°F 93% 29.78 in 0.2 miles South 5.8 mph - N/A Fog Fog
1:51 AM 32.0°F 30.2°F 93% 29.78 in 0.2 miles South 4.6 mph - N/A Fog Fog
1:53 AM 32.0°F 30.9°F 96% 29.82 in 0.2 miles South 4.6 mph - N/A Fog Fog
2:53 AM 32.0°F 30.9°F 96% 29.81 in 0.2 miles Calm Calm - N/A Fog Fog
3:53 AM 32.0°F 30.9°F 96% 29.80 in 0.2 miles SSW 3.5 mph - N/A Fog Fog
4:50 AM 32.0°F 30.2°F 93% 29.77 in 0.2 miles South 4.6 mph - N/A Fog Fog
4:53 AM 32.0°F 30.9°F 96% 29.81 in 0.2 miles South 3.5 mph - N/A Fog Fog
5:18 AM 30.2°F 30.2°F 100% 29.77 in 0.2 miles SSW 4.6 mph - N/A Fog Light Freezing Fog
5:29 AM 30.2°F 30.2°F 100% 29.77 in 0.2 miles South 5.8 mph - N/A Fog Light Freezing Fog
5:53 AM 32.0°F 30.9°F 96% 29.82 in 0.2 miles South 6.9 mph - N/A Fog Fog
6:53 AM 32.0°F 32.0°F 100% 29.82 in 0.2 miles South 5.8 mph - N/A Fog Fog
7:53 AM 32.0°F 30.9°F 96% 29.83 in 0.2 miles South 6.9 mph - N/A Fog Fog
8:42 AM 32.0°F 32.0°F 100% 29.81 in 0.2 miles SSW 5.8 mph - N/A Fog Fog
8:53 AM 32.0°F 32.0°F 100% 29.86 in 0.2 miles South 4.6 mph - N/A Fog Fog
9:42 AM 32.0°F 32.0°F 100% 29.84 in 0.2 miles South 8.1 mph - 0.00 in Fog , Snow Light Snow
9:53 AM 32.0°F 32.0°F 100% 29.88 in 0.2 miles SSW 6.9 mph - 0.00 in Fog Fog
10:53 AM 33.1°F 32.0°F 96% 29.88 in 0.2 miles South 5.8 mph - 0.00 in Fog Fog
11:32 AM 33.8°F 33.8°F 100% 29.84 in 1.0 miles SSW 4.6 mph - 0.00 in Snow Light Snow
11:40 AM 33.8°F 32.0°F 93% 29.84 in 3.0 miles SW 4.6 mph - 0.00 in   Overcast
11:53 AM 33.1°F 33.1°F 100% 29.87 in 2.0 miles SSW 4.6 mph - 0.00 in   Overcast
12:10 PM 33.8°F 32.0°F 93% 29.84 in 1.0 miles SW 4.6 mph - N/A   Overcast
12:53 PM 34.0°F 32.0°F 92% 29.88 in 2.5 miles SSW 5.8 mph - 0.00 in   Overcast
1:25 PM 33.8°F 32.0°F 93% 29.85 in 2.5 miles SW 8.1 mph - N/A   Overcast
1:53 PM 34.0°F 32.0°F 92% 29.89 in 2.5 miles SW 5.8 mph - 0.00 in Snow Light Snow
2:00 PM 33.8°F 32.0°F 93% 29.85 in 4.0 miles SW 4.6 mph - 0.00 in Snow Light Snow
2:20 PM 33.8°F 32.0°F 93% 29.86 in 2.5 miles SW 4.6 mph - 0.00 in Snow Light Snow
2:37 PM 33.8°F 32.0°F 93% 29.86 in 3.0 miles SW 4.6 mph - 0.00 in Snow Light Snow
2:45 PM 33.8°F 33.8°F 100% 29.87 in 3.0 miles SW 3.5 mph - 0.00 in Snow Light Snow
2:53 PM 34.0°F 32.0°F 92% 29.90 in 3.0 miles SW 4.6 mph - 0.00 in Snow Light Snow
3:32 PM 33.8°F 32.0°F 93% 29.88 in 6.0 miles SW 3.5 mph - 0.00 in   Overcast
3:44 PM 33.8°F 33.8°F 100% 29.88 in 6.0 miles West 4.6 mph - 0.00 in   Overcast
3:53 PM 34.0°F 32.0°F 92% 29.91 in 6.0 miles WSW 4.6 mph - 0.00 in   Overcast
4:23 PM 33.8°F 33.8°F 100% 29.89 in 2.0 miles Calm Calm - 0.00 in Snow Light Snow
4:53 PM 33.1°F 33.1°F 100% 29.93 in 1.2 miles Calm Calm - 0.01 in Snow Light Snow
5:02 PM 33.8°F 32.0°F 93% 29.89 in 1.5 miles Calm Calm - 0.00 in Snow Light Snow
5:13 PM 33.8°F 32.0°F 93% 29.89 in 2.5 miles Calm Calm - 0.00 in Snow Light Snow
5:29 PM 33.8°F 32.0°F 93% 29.90 in 0.8 miles Calm Calm - 0.00 in   Overcast
5:41 PM 33.8°F 32.0°F 93% 29.90 in 0.2 miles Calm Calm - 0.00 in Fog Fog
5:53 PM 33.1°F 32.0°F 96% 29.94 in 0.2 miles Calm Calm - 0.00 in Fog Fog
6:02 PM 33.8°F 32.0°F 93% 29.90 in 0.5 miles Calm Calm - N/A Fog Fog
6:29 PM 33.8°F 32.0°F 93% 29.91 in 1.2 miles Calm Calm - 0.00 in   Overcast
6:53 PM 33.1°F 32.0°F 96% 29.94 in 2.0 miles Calm Calm - 0.00 in Snow Light Snow
7:00 PM 33.8°F 32.0°F 93% 29.91 in 3.0 miles Calm Calm - 0.00 in Snow Light Snow
7:45 PM 33.8°F 32.0°F 93% 29.92 in 4.0 miles Calm Calm - 0.00 in Snow Light Snow
7:53 PM 33.1°F 32.0°F 96% 29.95 in 4.0 miles East 3.5 mph - 0.00 in Snow Light Snow
8:29 PM 33.8°F 32.0°F 93% 29.92 in 9.0 miles Calm Calm - 0.00 in   Overcast
8:53 PM 34.0°F 32.0°F 92% 29.96 in 10.0 miles Calm Calm - 0.00 in   Overcast
9:20 PM 33.8°F 32.0°F 93% 29.93 in 10.0 miles Calm Calm - N/A   Overcast
9:53 PM 34.0°F 32.0°F 92% 29.98 in 10.0 miles Calm Calm - N/A   Overcast
10:30 PM 33.8°F 32.0°F 93% 29.96 in 10.0 miles Calm Calm - N/A   Overcast
10:53 PM 33.1°F 32.0°F 96% 30.00 in 10.0 miles Calm Calm - N/A   Overcast
11:04 PM 33.8°F 32.0°F 93% 29.96 in 10.0 miles Calm Calm - N/A   Overcast
11:38 PM 33.8°F 32.0°F 93% 29.96 in 10.0 miles South 3.5 mph - N/A   Overcast
11:53 PM 33.1°F 32.0°F 96% 30.00 in 8.0 miles Calm Calm - N/A   Overcast
Moon Phase
Dec. 26 Dec. 28 Jan. 04 Jan. 11 Jan. 18
Sunrise:07:34 AM (PST) Moon Rise:03:12 PM (PST)12/26
Sunset:04:13 PM (PST) Moon Set:06:00 AM (PST)12/26

Copyright © 2014 The Weather Underground, Inc.